| time (UTC) | temp C | wind direction | speed KPH | gust KPH | rain 1hr cm | rain 24hr cm | rain mn cm | humidity % | barometer mb |
| 20260906113103 | 22 | 297 | 0.0 | 0.0 | 0.00 | 0.00 | 0.00 | 96 | 1010.6 |
| 20260906111507 | 22 | 76 | 0.0 | 1.6 | 0.00 | 0.00 | 0.00 | 97 | 1010.3 |
| 20260906110015 | 22 | 113 | 0.0 | 1.6 | 0.00 | 0.00 | 0.00 | 97 | 1010.3 |
| 20260906104522 | 23 | 295 | 0.0 | 3.2 | 0.00 | 0.00 | 0.00 | 97 | 1010.1 |
| 20260906103019 | 23 | 297 | 0.0 | 1.6 | 0.00 | 0.00 | 0.00 | 97 | 1009.9 |
| 20260906101522 | 23 | 307 | 0.0 | 3.2 | 0.00 | 0.00 | 0.00 | 98 | 1009.6 |
| 20260906100027 | 23 | 309 | 0.0 | 3.2 | 0.00 | 0.00 | 0.00 | 97 | 1009.3 |
| 20260906094606 | 24 | 298 | 0.0 | 4.8 | 0.00 | 0.00 | 0.00 | 97 | 1009.3 |
| 20260906093044 | 24 | 298 | 0.0 | 1.6 | 0.00 | 0.00 | 0.00 | 97 | 1009.1 |
| 20260906091548 | 24 | 271 | 0.0 | 0.0 | 0.00 | 0.00 | 0.00 | 97 | 1009.0 |
| 20260906090050 | 24 | 278 | 0.0 | 0.0 | 0.00 | 0.00 | 0.00 | 96 | 1009.0 |
| 20260906084552 | 24 | 273 | 0.0 | 0.0 | 0.00 | 0.00 | 0.00 | 96 | 1009.2 |
| 20260906083055 | 24 | 270 | 0.0 | 0.0 | 0.00 | 0.00 | 0.00 | 96 | 1009.1 |
| 20260906081559 | 24 | 271 | 0.0 | 0.0 | 0.00 | 0.00 | 0.00 | 95 | 1009.2 |
| 20260906080009 | 24 | 271 | 0.0 | 0.0 | 0.00 | 0.00 | 0.00 | 95 | 1009.2 |
| 20260906074523 | 25 | 269 | 0.0 | 0.0 | 0.00 | 0.00 | 0.00 | 94 | 1009.3 |
| 20260906073023 | 25 | 269 | 0.0 | 0.0 | 0.00 | 0.00 | 0.00 | 93 | 1009.7 |
| 20260906071526 | 25 | 269 | 0.0 | 0.0 | 0.00 | 0.00 | 0.00 | 93 | 1009.8 |
| 20260906070036 | 25 | 269 | 0.0 | 0.0 | 0.00 | 0.00 | 0.00 | 92 | 1009.9 |
| 20260906064539 | 25 | 269 | 0.0 | 0.0 | 0.00 | 0.00 | 0.00 | 92 | 1010.0 |
| 20260906063041 | 26 | 239 | 0.0 | 0.0 | 0.00 | 0.00 | 0.00 | 91 | 1010.1 |
| 20260906061544 | 26 | 314 | 0.0 | 3.2 | 0.00 | 0.00 | 0.00 | 91 | 1009.9 |
| 20260906060047 | 26 | 250 | 0.0 | 4.8 | 0.00 | 0.00 | 0.00 | 90 | 1010.0 |
| 20260906054551 | 27 | 266 | 1.6 | 9.7 | 0.00 | 0.00 | 0.00 | 90 | 1010.1 |
| 20260906053048 | 26 | 169 | 0.0 | 1.6 | 0.00 | 0.00 | 0.00 | 88 | 1010.4 |
| 20260906051555 | 26 | 311 | 0.0 | 0.0 | 0.00 | 0.00 | 0.00 | 86 | 1010.2 |
| 20260906050114 | 26 | 113 | 0.0 | 0.0 | 0.00 | 0.00 | 0.00 | 86 | 1010.0 |
| 20260906044507 | 26 | 113 | 0.0 | 6.4 | 0.00 | 0.00 | 0.00 | 85 | 1009.9 |
| 20260906043010 | 26 | 137 | 1.6 | 6.4 | 0.00 | 0.00 | 0.00 | 86 | 1010.4 |
| 20260906041509 | 26 | 53 | 1.6 | 6.4 | 0.00 | 0.00 | 0.00 | 87 | 1010.9 |
| 20260906040024 | 26 | 120 | 3.2 | 11.3 | 0.00 | 0.00 | 0.00 | 87 | 1011.2 |
| 20260906034545 | 26 | 166 | 1.6 | 6.4 | 0.00 | 0.00 | 0.00 | 89 | 1011.6 |
| 20260906033045 | 27 | 103 | 0.0 | 9.7 | 0.00 | 0.00 | 0.00 | 90 | 1011.4 |
| 20260906031550 | 27 | 82 | 1.6 | 8.0 | 0.00 | 0.00 | 0.00 | 92 | 1011.0 |
| 20260906030058 | 27 | 123 | 1.6 | 4.8 | 0.00 | 0.00 | 0.00 | 91 | 1010.5 |
| 20260906024604 | 27 | 83 | 1.6 | 11.3 | 0.00 | 0.00 | 0.00 | 90 | 1010.3 |
| 20260906023002 | 27 | 105 | 1.6 | 8.0 | 0.00 | 0.00 | 0.00 | 89 | 1010.5 |
| 20260906021514 | 27 | 204 | 1.6 | 6.4 | 0.00 | 0.00 | 0.00 | 90 | 1010.5 |
| 20260906020031 | 27 | 88 | 1.6 | 8.0 | 0.00 | 0.00 | 0.00 | 89 | 1010.5 |
| 20260906014533 | 27 | 139 | 1.6 | 6.4 | 0.00 | 0.00 | 0.00 | 89 | 1010.4 |
| 20260906013038 | 27 | 49 | 0.0 | 6.4 | 0.00 | 0.00 | 0.00 | 88 | 1010.5 |
| 20260906011547 | 27 | 121 | 0.0 | 4.8 | 0.00 | 0.00 | 0.00 | 87 | 1010.7 |
| 20260906010048 | 27 | 139 | 1.6 | 6.4 | 0.00 | 0.00 | 0.00 | 88 | 1009.9 |
| 20260906004554 | 27 | 78 | 0.0 | 6.4 | 0.00 | 0.00 | 0.00 | 87 | 1009.7 |
| 20260906003054 | 27 | 117 | 1.6 | 9.7 | 0.00 | 0.00 | 0.00 | 82 | 1010.5 |
| 20260906001607 | 27 | 64 | 0.0 | 8.0 | 0.00 | 0.00 | 0.00 | 82 | 1010.7 |
| 20260906000058 | 27 | 120 | 0.0 | 8.0 | 0.00 | 0.00 | 0.00 | 81 | 1010.5 |
| 20260905234601 | 27 | 64 | 3.2 | 16.1 | 0.00 | 0.00 | 0.00 | 77 | 1010.7 |
| 20260905233112 | 29 | 77 | 0.0 | 3.2 | 0.00 | 0.00 | 0.00 | 91 | 1010.2 |
| 20260905231506 | 29 | 70 | 0.0 | 6.4 | 0.00 | 0.00 | 0.00 | 90 | 1009.8 |
| 20260905230013 | 28 | 217 | 1.6 | 8.0 | 0.00 | 0.00 | 0.00 | 90 | 1009.9 |
| 20260905224517 | 29 | 142 | 1.6 | 6.4 | 0.00 | 0.00 | 0.00 | 90 | 1009.8 |
| 20260905223032 | 29 | 142 | 1.6 | 9.7 | 0.00 | 0.00 | 0.00 | 89 | 1009.3 |
| 20260905221537 | 30 | 40 | 0.0 | 9.7 | 0.00 | 0.00 | 0.00 | 88 | 1009.6 |
| 20260905220030 | 30 | 158 | 1.6 | 11.3 | 0.00 | 0.00 | 0.00 | 87 | 1009.0 |
| 20260905214541 | 30 | 101 | 1.6 | 8.0 | 0.00 | 0.00 | 0.00 | 87 | 1008.9 |
| 20260905213046 | 30 | 129 | 1.6 | 6.4 | 0.00 | 0.00 | 0.00 | 87 | 1009.4 |
| 20260905211550 | 30 | 131 | 1.6 | 8.0 | 0.00 | 0.00 | 0.00 | 86 | 1009.1 |
| 20260905210108 | 31 | 143 | 1.6 | 9.7 | 0.00 | 0.00 | 0.00 | 84 | 1009.4 |
| 20260905204546 | 31 | 142 | 0.0 | 8.0 | 0.00 | 0.00 | 0.00 | 85 | 1009.3 |
| 20260905203050 | 31 | 34 | 1.6 | 8.0 | 0.00 | 0.00 | 0.00 | 85 | 1009.2 |
| 20260905201600 | 32 | 141 | 0.0 | 4.8 | 0.00 | 0.00 | 0.00 | 83 | 1009.1 |
| 20260905200123 | 31 | 124 | 3.2 | 9.7 | 0.00 | 0.00 | 0.00 | 83 | 1009.2 |
| 20260905194506 | 32 | 8 | 1.6 | 11.3 | 0.00 | 0.00 | 0.00 | 84 | 1009.5 |
| 20260905193009 | 32 | 147 | 1.6 | 9.7 | 0.00 | 0.00 | 0.00 | 84 | 1009.7 |
| 20260905191513 | 32 | 88 | 0.0 | 9.7 | 0.00 | 0.00 | 0.00 | 81 | 1010.1 |
| 20260905190025 | 32 | 84 | 3.2 | 9.7 | 0.00 | 0.00 | 0.00 | 82 | 1010.3 |
| 20260905184538 | 32 | 79 | 1.6 | 8.0 | 0.00 | 0.00 | 0.00 | 82 | 1010.7 |
| 20260905183040 | 32 | 117 | 3.2 | 8.0 | 0.00 | 0.00 | 0.00 | 81 | 1010.9 |
| 20260905181544 | 32 | 131 | 0.0 | 6.4 | 0.00 | 0.00 | 0.00 | 82 | 1011.0 |
| 20260905180046 | 32 | 193 | 0.0 | 9.7 | 0.00 | 0.00 | 0.00 | 81 | 1011.1 |
| 20260905174549 | 32 | 126 | 1.6 | 11.3 | 0.00 | 0.00 | 0.00 | 79 | 1011.2 |
| 20260905173051 | 32 | 105 | 3.2 | 8.0 | 0.00 | 0.00 | 0.00 | 78 | 1011.2 |
| 20260905171605 | 33 | 89 | 1.6 | 6.4 | 0.00 | 0.00 | 0.00 | 77 | 1011.4 |
| 20260905170058 | 33 | 101 | 1.6 | 8.0 | 0.00 | 0.00 | 0.00 | 73 | 1011.6 |
| 20260905164557 | 33 | 355 | 0.0 | 3.2 | 0.00 | 0.00 | 0.00 | 71 | 1011.8 |
| 20260905163101 | 33 | 127 | 1.6 | 6.4 | 0.00 | 0.00 | 0.00 | 72 | 1012.0 |
| 20260905161611 | 33 | 184 | 0.0 | 3.2 | 0.00 | 0.00 | 0.00 | 73 | 1012.2 |
| 20260905160002 | 32 | 296 | 0.0 | 6.4 | 0.00 | 0.00 | 0.00 | 74 | 1012.4 |
| 20260905154521 | 32 | 257 | 0.0 | 3.2 | 0.00 | 0.00 | 0.00 | 75 | 1012.6 |
| 20260905153015 | 31 | 219 | 0.0 | 6.4 | 0.00 | 0.00 | 0.00 | 77 | 1012.8 |
| 20260905151516 | 31 | 214 | 0.0 | 6.4 | 0.00 | 0.00 | 0.00 | 78 | 1012.9 |
| 20260905150027 | 31 | 226 | 0.0 | 4.8 | 0.00 | 0.00 | 0.00 | 80 | 1013.0 |
| 20260905144537 | 31 | 232 | 0.0 | 8.0 | 0.00 | 0.00 | 0.00 | 81 | 1013.1 |
| 20260905143029 | 30 | 309 | 0.0 | 8.0 | 0.00 | 0.00 | 0.00 | 82 | 1013.2 |
| 20260905141539 | 30 | 287 | 0.0 | 3.2 | 0.00 | 0.00 | 0.00 | 82 | 1013.3 |
| 20260905140043 | 30 | 240 | 0.0 | 3.2 | 0.00 | 0.00 | 0.00 | 83 | 1013.3 |
| 20260905134550 | 30 | 309 | 0.0 | 8.0 | 0.00 | 0.00 | 0.00 | 84 | 1013.3 |
| 20260905133045 | 29 | 77 | 0.0 | 8.0 | 0.00 | 0.00 | 0.00 | 86 | 1013.3 |
| 20260905131547 | 29 | 266 | 0.0 | 3.2 | 0.00 | 0.00 | 0.00 | 87 | 1013.2 |
| 20260905130051 | 28 | 197 | 0.0 | 8.0 | 0.00 | 0.00 | 0.00 | 89 | 1013.3 |
| 20260905124553 | 28 | 245 | 0.0 | 4.8 | 0.00 | 0.00 | 0.00 | 89 | 1013.4 |
| 20260905123055 | 27 | 270 | 0.0 | 8.0 | 0.00 | 0.00 | 0.00 | 92 | 1013.3 |
| 20260905121557 | 27 | 164 | 0.0 | 6.4 | 0.00 | 0.00 | 0.00 | 95 | 1013.2 |
| 20260905120101 | 26 | 233 | 0.0 | 4.8 | 0.00 | 0.00 | 0.00 | 97 | 1013.2 |
| 20260905114612 | 25 | 233 | 0.0 | 4.8 | 0.00 | 0.00 | 0.00 | 98 | 1013.3 |